FW3802 Weather Reports


Display with metric or nautical units.
time (UTC)temp
F
wind
direction
speed
MPH
gust
MPH
rain 1hr
in
rain 24hr
in
rain mn
in
humidity
%
barometer
mb
20210925223247 81 218 4.0 10.0 0.00 0.00 0.00 27 1010.4
20210925222247 81 159 3.0 10.0 0.00 0.00 0.00 28 1010.6
20210925221247 80 198 5.0 10.0 0.00 0.00 0.00 29 1010.7
20210925220250 80 174 5.0 13.0 0.00 0.00 0.00 29 1010.8
20210925215248 80 204 5.0 9.0 0.00 0.00 0.00 30 1010.9
20210925214247 80 183 5.0 10.0 0.00 0.00 0.00 29 1011.1
20210925213243 79 184 5.0 10.0 0.00 0.00 0.00 31 1011.2
20210925212243 79 236 6.0 12.0 0.00 0.00 0.00 30 1011.2
20210925211243 78 224 6.0 13.0 0.00 0.00 0.00 31 1011.4
20210925210240 78 270 4.0 13.0 0.00 0.00 0.00 34 1011.5
20210925205239 78 163 6.0 12.0 0.00 0.00 0.00 34 1011.7
20210925204239 78 156 4.0 10.0 0.00 0.00 0.00 35 1011.8
20210925203235 77 221 4.0 10.0 0.00 0.00 0.00 35 1011.9
20210925202234 76 252 4.0 10.0 0.00 0.00 0.00 37 1012.0
20210925201235 76 200 5.0 12.0 0.00 0.00 0.00 37 1012.1
20210925200231 76 224 4.0 9.0 0.00 0.00 0.00 37 1012.3
20210925195230 74 301 5.0 9.0 0.00 0.00 0.00 40 1012.4
20210925194231 75 237 4.0 12.0 0.00 0.00 0.00 39 1012.5
20210925193229 75 271 3.0 8.0 0.00 0.00 0.00 40 1012.6
20210925192229 74 238 5.0 9.0 0.00 0.00 0.00 42 1012.6
20210925191225 74 149 4.0 10.0 0.00 0.00 0.00 39 1012.7
20210925190223 73 136 3.0 9.0 0.00 0.00 0.00 43 1012.8
20210925185222 72 253 4.0 9.0 0.00 0.00 0.00 44 1012.8
20210925184218 71 229 4.0 9.0 0.00 0.00 0.00 45 1013.0
20210925183217 71 179 3.0 7.0 0.00 0.00 0.00 46 1013.0
20210925182220 70 278 2.0 8.0 0.00 0.00 0.00 48 1013.1
20210925181213 68 288 3.0 7.0 0.00 0.00 0.00 51 1013.1
20210925180211 68 251 2.0 5.0 0.00 0.00 0.00 52 1013.2
20210925175211 67 258 3.0 7.0 0.00 0.00 0.00 54 1013.2
20210925174204 65 289 2.0 4.0 0.00 0.00 0.00 57 1013.2
20210925173205 64 262 3.0 6.0 0.00 0.00 0.00 60 1013.3
20210925172203 63 300 2.0 4.0 0.00 0.00 0.00 61 1013.3
20210925171159 62 278 2.0 5.0 0.00 0.00 0.00 62 1013.5
20210925170159 61 302 2.0 4.0 0.00 0.00 0.00 64 1013.5
20210925165201 60 267 2.0 5.0 0.00 0.00 0.00 66 1013.5
20210925164154 60 319 1.0 4.0 0.00 0.00 0.00 68 1013.5
20210925163155 59 283 1.0 3.0 0.00 0.00 0.00 70 1013.5
20210925162153 58 294 1.0 3.0 0.00 0.00 0.00 72 1013.6
20210925161148 57 328 0.0 0.0 0.00 0.00 0.00 74 1013.6
20210925160146 56 268 0.0 0.0 0.00 0.00 0.00 73 1013.8
20210925155146 56 223 0.0 1.0 0.00 0.00 0.00 76 1013.7
20210925154140 53 168 0.0 0.0 0.00 0.00 0.00 81 1013.8
20210925153140 51 168 0.0 0.0 0.00 0.00 0.00 85 1013.8
20210925152142 48 168 0.0 0.0 0.00 0.00 0.00 89 1013.7
20210925151134 47 168 0.0 0.0 0.00 0.00 0.00 88 1013.7
20210925150134 47 169 0.0 0.0 0.00 0.00 0.00 89 1013.5
20210925145135 47 168 0.0 0.0 0.00 0.00 0.00 90 1013.7
20210925144130 46 169 0.0 1.0 0.00 0.00 0.00 92 1013.6
20210925143131 44 203 0.0 0.0 0.00 0.00 0.00 93 1013.5
20210925142128 43 203 0.0 0.0 0.00 0.00 0.00 93 1013.5
20210925141124 43 202 0.0 1.0 0.00 0.00 0.00 93 1013.3
20210925140123 43 210 0.0 0.0 0.00 0.00 0.00 92 1013.4
20210925135125 43 209 0.0 0.0 0.00 0.00 0.00 91 1013.2
20210925134118 43 209 0.0 0.0 0.00 0.00 0.00 91 1013.2
20210925133118 44 210 0.0 0.0 0.00 0.00 0.00 91 1013.1
20210925132117 44 210 0.0 1.0 0.00 0.00 0.00 90 1013.1
20210925131112 45 217 0.0 1.0 0.00 0.00 0.00 90 1013.2
20210925130112 45 215 0.0 1.0 0.00 0.00 0.00 89 1013.2
20210925125109 45 205 0.0 1.0 0.00 0.00 0.00 89 1013.2
20210925124106 45 153 0.0 1.0 0.00 0.00 0.00 89 1013.3
20210925123106 45 153 0.0 0.0 0.00 0.00 0.00 89 1013.3
20210925122109 46 153 0.0 1.0 0.00 0.00 0.00 88 1013.4
20210925121100 46 44 0.0 0.0 0.00 0.00 0.00 88 1013.4
20210925120100 46 322 0.0 1.0 0.00 0.00 0.00 88 1013.4
20210925115058 47 325 0.0 1.0 0.00 0.00 0.00 88 1013.4
20210925114058 47 324 0.0 2.0 0.00 0.00 0.00 88 1013.4
20210925113057 47 247 0.0 1.0 0.00 0.00 0.00 87 1013.2
20210925112058 47 307 1.0 3.0 0.00 0.00 0.00 87 1013.3
20210925111054 47 130 0.0 1.0 0.00 0.00 0.00 87 1013.2
20210925110053 47 127 1.0 2.0 0.00 0.00 0.00 86 1013.2
20210925105053 47 95 0.0 1.0 0.00 0.00 0.00 87 1013.6
20210925104050 47 95 0.0 1.0 0.00 0.00 0.00 87 1013.7
20210925103049 47 95 0.0 1.0 0.00 0.00 0.00 87 1013.4
20210925102050 46 247 0.0 0.0 0.00 0.00 0.00 87 1013.5
20210925101046 46 257 0.0 1.0 0.00 0.00 0.00 88 1013.4
20210925100046 46 214 0.0 1.0 0.00 0.00 0.00 88 1013.5
20210925095046 46 153 0.0 1.0 0.00 0.00 0.00 87 1013.6
20210925094042 46 120 0.0 1.0 0.00 0.00 0.00 88 1013.7
20210925093042 46 6 0.0 0.0 0.00 0.00 0.00 88 1013.8
20210925092045 46 6 0.0 1.0 0.00 0.00 0.00 87 1013.8
20210925091038 46 94 0.0 1.0 0.00 0.00 0.00 86 1013.8
20210925090037 46 94 0.0 1.0 0.00 0.00 0.00 85 1013.8
20210925085036 46 94 0.0 1.0 0.00 0.00 0.00 87 1013.8
20210925084032 46 94 0.0 1.0 0.00 0.00 0.00 86 1013.9
20210925083031 46 94 0.0 0.0 0.00 0.00 0.00 86 1013.9
20210925082029 47 94 0.0 0.0 0.00 0.00 0.00 85 1014.1
20210925081026 47 94 0.0 0.0 0.00 0.00 0.00 85 1014.1
20210925080025 46 94 0.0 1.0 0.00 0.00 0.00 85 1014.1
20210925075029 47 94 0.0 1.0 0.00 0.00 0.00 84 1014.1
20210925074019 47 94 0.0 1.0 0.00 0.00 0.00 83 1014.1
20210925073019 48 94 0.0 1.0 0.00 0.00 0.00 83 1013.9
20210925072017 48 94 0.0 1.0 0.00 0.00 0.00 83 1014.2
20210925071018 47 138 0.0 0.0 0.00 0.00 0.00 83 1014.4
20210925070018 47 137 0.0 0.0 0.00 0.00 0.00 83 1014.3
20210925065014 47 138 0.0 0.0 0.00 0.00 0.00 83 1014.4
20210925064014 47 138 0.0 0.0 0.00 0.00 0.00 84 1014.4
20210925063008 47 138 0.0 0.0 0.00 0.00 0.00 83 1014.5
20210925062008 47 138 0.0 0.0 0.00 0.00 0.00 83 1014.5
20210925060001 48 103 0.0 1.0 0.00 0.00 0.00 81 1014.6
20210925055000 49 103 0.0 0.0 0.00 0.00 0.00 81 1014.6
20210925054002 49 103 0.0 0.0 0.00 0.00 0.00 81 1014.9
20210925052953 49 103 0.0 1.0 0.00 0.00 0.00 78 1015.0
20210925051953 50 103 0.0 1.0 0.00 0.00 0.00 77 1015.0
20210925050951 51 96 0.0 1.0 0.00 0.00 0.00 76 1015.2
20210925045948 51 95 0.0 1.0 0.00 0.00 0.00 77 1015.4
20210925044947 51 140 0.0 1.0 0.00 0.00 0.00 76 1015.4
20210925043949 52 140 0.0 1.0 0.00 0.00 0.00 75 1015.4
20210925042941 52 140 0.0 1.0 0.00 0.00 0.00 72 1015.4
20210925041942 53 141 0.0 0.0 0.00 0.00 0.00 70 1015.4
20210925040941 53 141 0.0 1.0 0.00 0.00 0.00 72 1015.4
20210925035936 54 141 0.0 0.0 0.00 0.00 0.00 72 1015.3
20210925034936 54 141 0.0 1.0 0.00 0.00 0.00 70 1015.5
20210925033933 55 160 1.0 3.0 0.00 0.00 0.00 69 1015.5
20210925032930 55 147 0.0 0.0 0.00 0.00 0.00 67 1015.5
20210925031929 56 147 0.0 0.0 0.00 0.00 0.00 68 1015.6
20210925030930 56 147 0.0 0.0 0.00 0.00 0.00 69 1015.8
20210925025924 57 147 0.0 0.0 0.00 0.00 0.00 68 1015.9
20210925024921 58 147 0.0 0.0 0.00 0.00 0.00 65 1015.9
20210925023923 58 147 0.0 1.0 0.00 0.00 0.00 65 1016.0
20210925022917 59 153 0.0 1.0 0.00 0.00 0.00 61 1016.2
20210925021917 61 186 0.0 1.0 0.00 0.00 0.00 57 1016.3
20210925020915 62 258 0.0 0.0 0.00 0.00 0.00 55 1016.4
20210925015911 64 258 0.0 1.0 0.00 0.00 0.00 52 1016.4
20210925014911 66 258 0.0 1.0 0.00 0.00 0.00 47 1016.4
20210925013912 69 260 0.0 1.0 0.00 0.00 0.00 45 1016.4
20210925012905 73 262 0.0 0.0 0.00 0.00 0.00 38 1016.5
20210925011903 76 262 0.0 1.0 0.00 0.00 0.00 32 1016.6
20210925010906 77 262 1.0 2.0 0.00 0.00 0.00 31 1016.6
20210925005856 77 237 1.0 2.0 0.00 0.00 0.00 31 1016.7
20210925004857 77 229 2.0 3.0 0.00 0.00 0.00 30 1016.7
20210925003858 78 320 2.0 3.0 0.00 0.00 0.00 30 1017.0
20210925002853 77 315 2.0 4.0 0.00 0.00 0.00 30 1017.1
20210925001850 78 316 2.0 5.0 0.00 0.00 0.00 29 1017.2
20210925000853 78 288 1.0 5.0 0.00 0.00 0.00 29 1017.4
20210924235844 78 327 3.0 6.0 0.00 0.00 0.00 28 1017.6
20210924234845 78 219 2.0 7.0 0.00 0.00 0.00 29 1017.7
20210924233848 78 287 2.0 6.0 0.00 0.00 0.00 29 1017.9
20210924232841 78 126 3.0 9.0 0.00 0.00 0.00 29 1018.1
20210924231841 78 349 1.0 7.0 0.00 0.00 0.00 28 1018.3
20210924230841 78 3 3.0 8.0 0.00 0.00 0.00 29 1018.4
20210924225841 78 304 3.0 7.0 0.00 0.00 0.00 29 1018.5
20210924224839 77 259 2.0 9.0 0.00 0.00 0.00 29 1018.7
20210924223839 77 195 2.0 6.0 0.00 0.00 0.00 30 1018.8